Volver al catálogo

MOLNIYA 1-80

ActivoComunicacionesHEO
NORAD 21118·PAYLOAD·🇷🇺 Russia

Lanzado Feb 15, 1991 desde Plesetsk Cosmodrome

Loading…

Próximos Pases (próximas 24 horas)

TLE

ActualizadoSource: Space-Track

Época: Sep 14, 2026, 00:43 UTC

1 21118U 91012A   26257.03048835  .00000865  00000-0  00000-0 0  9998
2 21118  64.8902 187.6336 6345016 254.4342  31.2493  2.05237643262786

Sigue MOLNIYA 1-80 en tiempo real con AllMySat

Download on the App Store